Location: Recife
(8.0585°S, 34.8848°W)
Time: 06:54:20
(UTC-03:00)

Vanguard 3 - Pass Details

Date: 23 April 2026
Orbit: 507 x 3205 km, 33.4° (Epoch: 13 May)

Event Time Altitude Azimuth Distance (km) Brightness Sun altitude
Rises 12:48:24 0° 231° (SW) 6,764 11.9 59.4°
Reaches altitude 10° 12:53:03 10° 225° (SW) 5,943 11.7 58.5°
Maximum altitude 13:11:39 49° 154° (SSE) 3,723 10.8 54.9°
Drops below altitude 10° 13:27:28 10° 84° (E) 5,174 11.1 51.7°
Sets 13:31:06 0° 78° (ENE) 5,876 11.3 50.9°
